Location: Columbia
(38.9520°N, 92.3340°W)
Time: 15:24:50
(UTC-05:00)

Cosmos 2219 Rocket - Visible Passes

Search period start: 25 April 2017 00:00
Search period end: 05 May 2017 00:00
Orbit: 828 x 847 km, 71.0° (Epoch: 24 April)

Date Brightness Start Highest point End Pass type
(mag) Time Alt. Az. Time Alt. Az. Time Alt. Az.
25 Apr 3.6 00:10:16 34° NNW 00:10:16 34° NNW 00:14:22 10° N visible
25 Apr 3.9 22:11:47 18° ENE 22:11:47 18° ENE 22:13:37 10° NE visible
25 Apr 3.3 23:53:26 39° NW 23:53:26 39° NW 23:58:04 10° N visible
26 Apr 3.7 21:54:47 19° ENE 21:54:47 19° ENE 21:57:09 10° NE visible
26 Apr 3.1 23:36:25 44° WNW 23:36:25 44° WNW 23:41:46 10° N visible
27 Apr 3.5 21:37:34 21° E 21:37:34 21° E 21:40:40 10° NE visible
27 Apr 3.0 23:19:11 44° W 23:20:01 48° WNW 23:25:28 10° NNE visible
28 Apr 3.4 21:20:01 20° ESE 21:20:11 20° E 21:24:09 10° NE visible
28 Apr 2.8 23:01:36 34° WSW 23:03:39 51° WNW 23:09:09 10° NNE visible
29 Apr 3.5 21:01:52 15° SE 21:03:52 18° E 21:07:38 10° ENE visible
29 Apr 2.7 22:43:24 19° SW 22:47:18 56° WNW 22:52:50 10° NNE visible
30 Apr 3.6 20:44:07 10° SE 20:47:35 17° E 20:51:03 10° ENE visible
30 Apr 2.6 22:25:25 10° SW 22:30:56 60° WNW 22:36:31 10° NNE visible
01 May 3.7 20:28:07 10° SE 20:31:17 15° E 20:34:27 10° ENE visible
01 May 2.5 22:09:02 10° SSW 22:14:34 66° WNW 22:20:11 10° NNE visible
01 May 5.2 23:59:05 10° NW 23:59:40 10° NW 00:00:15 10° NW visible
02 May 2.4 21:52:39 10° SSW 21:58:13 71° WNW 22:03:51 10° NNE visible
02 May 5.2 23:41:43 10° WNW 23:43:14 11° NW 23:44:45 10° NNW visible
03 May 2.3 21:36:17 10° SSW 21:41:52 77° WNW 21:47:31 10° NNE visible
03 May 5.2 23:24:45 10° WNW 23:26:48 12° NW 23:28:52 10° NNW visible
04 May 2.2 21:19:56 10° SSW 21:25:31 83° WNW 21:31:11 10° NNE visible
04 May 5.2 23:07:55 10° WNW 23:10:23 13° NW 23:12:51 10° NNW visible
